Tracking 20241 objects as of 25-Jan-2020
HD Live streaming from Space Station
objects crossing your sky now

FLOCK 4P 6

Track FLOCK 4P 6 now!
10-day predictions
FLOCK 4P 6 is classified as:


NORAD ID: 44817
Int'l Code: 2019-081P
Perigee: 505.3 km
Apogee: 522.0 km
Inclination: 97.5 °
Period: 94.8 minutes
Semi major axis: 6884 km
RCS: Unknown
Launch date: November 27, 2019
Source: United States (US)
Launch site: SRIHARIKOTA (SRI)
aabbcc
Your satellite tracking list
Your tracking list is empty




NASA's NSSDC Master Catalog

Two Line Element Set (TLE):
1 44817U 19081P   20024.40965335 +.00000519 +00000-0 +27497-4 0  9994
2 44817 097.5164 086.2445 0012153 044.3550 315.8656 15.19779893008843
Source of the keplerian elements: AFSPC